Onweer radar Meer informatie blitzortung!


Regen radar Meer informatie rain snow radar


Bezoek onze andere website:

Template documentation
and downloads

And another site



15 daagse weersverwachting Sundsvall (SE)

  • Overzicht
  • Per uur
  • 15 dagen
  • Extra
  • Vergelijk
  • Kaarten
  • Dagkaart
  • Meer »
  • Info
  • Statistieken
  • Directe link
    Temp 6h Neerslag Wind  
 04:18     21:38    Daglengte: 17:20 Morgen
02:00
14°
 
1
08:00
15°
 
3
14:00
15°
 
4
20:00
16°
 
3
 04:21     21:35    Daglengte: 17:14 Maandag 02 Aug
02:00
12°
 
3
08:00
12°
 
4
14:00
17°
 
3
20:00
16°
 
3
 04:24     21:32    Daglengte: 17:08 Dinsdag 03 Aug
02:00
11°
 
3
08:00
13°
 
4
14:00
18°
 
4
20:00
16°
 
2
Locatie info
Region: Västernorrlands län
Latitude: 62.3889°N
Longitude: 17.3067°E
26 masl
Postcode: 852 32
Temp/Neerslag /Baro Onweer/Dauwpunt
    Temp Baro 1h Neerslag Dauwpunt Wind UV Bewolking  
 04:18     21:38    Daglengte: 17:20 Morgen
00:00
14°
996.5 hPa
14%
14.0°
1
Windvlaag: 2.5 m/s
59%
01:00
14°
996.4 hPa
14%
14.1°
1
Windvlaag: 1.8 m/s
51%
02:00
14°
996.1 hPa
14%
14.0°
1
Windvlaag: 1.1 m/s
34%
03:00
14°
996.1 hPa
14%
14.1°
1
Windvlaag: 0.5 m/s
43%
04:00
14°
995.7 hPa
14%
14.1°
1
Windvlaag: 0.1 m/s
75%
05:00
13°
995.9 hPa
15%
12.0°
1
Windvlaag: -1.4 m/s
60%
06:00
14°
995.8 hPa
14%
12.7°
2
Windvlaag: -1.6 m/s
77%
07:00
15°
995.9 hPa
16%
13.6°
2
Windvlaag: -2.2 m/s
84%
08:00
15°
995.9 hPa
17%
13.8°
3
Windvlaag: -2.7 m/s
41%
09:00
14°
996.5 hPa
15%
12.4°
4
Windvlaag: -5.6 m/s
76%
10:00
13°
996.7 hPa
14%
11.9°
4
Windvlaag: -5.1 m/s
78%
11:00
14°
997.0 hPa
14%
11.8°
4
Windvlaag: -5.4 m/s
28%
12:00
14°
997.3 hPa
14%
11.8°
4
Windvlaag: -5.2 m/s
35%
13:00
14°
997.7 hPa
14%
11.9°
4
Windvlaag: -4.8 m/s
59%
14:00
15°
998.0 hPa
14%
12.7°
4
Windvlaag: -5.3 m/s
22%
15:00
16°
998.3 hPa
14%
11.9°
4
Windvlaag: -5.6 m/s
32%
16:00
17°
998.4 hPa
14%
7.4°
4
Windvlaag: -5.6 m/s
65%
17:00
16°
998.5 hPa
14%
5.1°
3
Windvlaag: -5.1 m/s
71%
18:00
17°
998.5 hPa
14%
4.8°
3
Windvlaag: -3.9 m/s
73%
19:00
17°
998.7 hPa
14%
5.0°
2
Windvlaag: -3.3 m/s
60%
20:00
16°
999.2 hPa
14%
5.6°
3
Windvlaag: -1.8 m/s
66%
21:00
15°
999.9 hPa
14%
5.7°
2
Windvlaag: -1.2 m/s
70%
22:00
15°
1000.4 hPa
14%
5.6°
3
Windvlaag: 0.4 m/s
78%
23:00
14°
1000.8 hPa
14%
6.1°
3
Windvlaag: -0.8 m/s
69%
 04:21     21:35    Daglengte: 17:14 Maandag 02 Aug
00:00
13°
1001.3 hPa
14%
6.1°
3
Windvlaag: -2.4 m/s
59%
01:00
12°
1001.4 hPa
14%
6.0°
3
Windvlaag: -2.5 m/s
33%
02:00
12°
1001.7 hPa
14%
5.6°
3
Windvlaag: -2.4 m/s
21%
03:00
11°
1001.9 hPa
14%
5.4°
3
Windvlaag: -2.8 m/s
12%
04:00
10°
1002.1 hPa
14%
5.8°
3
Windvlaag: -3 m/s
8%
05:00
10°
Voelt als: 7.9°
1002.5 hPa
14%
6.0°
3
Windvlaag: -2.8 m/s
8%
06:00
10°
Voelt als: 8.1°
1002.8 hPa
14%
6.3°
3
Windvlaag: -3.2 m/s
15%
07:00
11°
1002.9 hPa
14%
5.8°
4
Windvlaag: -3.6 m/s
23%
08:00
12°
1003.1 hPa
14%
5.3°
4
Windvlaag: -4.2 m/s
19%
09:00
13°
1003.3 hPa
14%
4.7°
4
Windvlaag: -4.4 m/s
17%
10:00
14°
1003.3 hPa
14%
4.0°
4
Windvlaag: -5 m/s
15%
11:00
15°
1003.3 hPa
14%
3.3°
3
Windvlaag: -5.2 m/s
27%
12:00
16°
1003.3 hPa
14%
3.7°
3
Windvlaag: -5.6 m/s
34%
13:00
17°
1003.1 hPa
15%
3.4°
3
Windvlaag: -5.8 m/s
37%
14:00
17°
1003.0 hPa
14%
3.8°
3
Windvlaag: -5.8 m/s
56%
15:00
18°
1002.9 hPa
14%
4.0°
3
Windvlaag: -5.7 m/s
61%
16:00
18°
1002.9 hPa
16%
4.2°
3
Windvlaag: -5.6 m/s
58%
17:00
17°
1002.7 hPa
22%
11.2°
3
Windvlaag: -5.6 m/s
53%
18:00
17°
1002.8 hPa
21%
12.6°
3
Windvlaag: -5.5 m/s
24%
19:00
16°
1002.9 hPa
21%
12.1°
3
Windvlaag: -5.2 m/s
34%
20:00
16°
1003.2 hPa
21%
11.6°
3
Windvlaag: -4.9 m/s
47%
21:00
14°
1003.4 hPa
21%
11.9°
2
Windvlaag: -4.2 m/s
48%
22:00
13°
1003.9 hPa
21%
11.4°
2
Windvlaag: -2.8 m/s
42%
23:00
13°
1004.2 hPa
21%
11.3°
2
Windvlaag: -1.8 m/s
63%
 04:24     21:32    Daglengte: 17:08 Dinsdag 03 Aug
00:00
12°
1004.5 hPa
21%
11.0°
3
Windvlaag: -3.4 m/s
43%
01:00
11°
1004.7 hPa
21%
10.5°
3
Windvlaag: -3.5 m/s
33%
02:00
11°
1004.9 hPa
21%
9.2°
3
Windvlaag: -3.6 m/s
20%
03:00
10°
1005.3 hPa
21%
7.0°
3
Windvlaag: -3.1 m/s
18%
04:00
10°
Voelt als: 7.8°
1005.5 hPa
21%
4.2°
4
Windvlaag: -2.3 m/s
28%
05:00
10°
Voelt als: 7.5°
1005.8 hPa
21%
3.9°
4
Windvlaag: -2.4 m/s
50%
06:00
10°
1006.0 hPa
21%
4.3°
4
Windvlaag: -2.4 m/s
53%
07:00
12°
1006.3 hPa
21%
4.7°
4
Windvlaag: -2.9 m/s
42%
08:00
13°
1006.7 hPa
21%
5.2°
4
Windvlaag: -3.1 m/s
13%
09:00
14°
1006.9 hPa
21%
5.2°
4
Windvlaag: -3.5 m/s
6%
10:00
15°
1007.1 hPa
21%
4.7°
4
Windvlaag: -3.8 m/s
6%
11:00
16°
1007.3 hPa
21%
3.3°
4
Windvlaag: -4 m/s
6%
12:00
17°
1007.4 hPa
22%
3.4°
4
Windvlaag: -4.4 m/s
20%
13:00
18°
1007.5 hPa
22%
3.1°
4
Windvlaag: -4.4 m/s
40%
14:00
18°
1007.5 hPa
21%
3.1°
4
Windvlaag: -4 m/s
57%
15:00
18°
1007.0 hPa
21%
2.7°
4
Windvlaag: 5.7 m/s
67%
16:00
17°
1007.2 hPa
21%
2.3°
4
Windvlaag: 5.6 m/s
75%
17:00
17°
1007.6 hPa
21%
2.2°
4
Windvlaag: 5 m/s
79%
18:00
17°
1007.7 hPa
21%
2.9°
3
Windvlaag: 4.9 m/s
39%
19:00
17°
1008.1 hPa
21%
3.2°
4
Windvlaag: 5.2 m/s
67%
20:00
16°
1008.4 hPa
21%
3.5°
2
Windvlaag: 4.6 m/s
43%
21:00
15°
1005.7 hPa 30.4 mm
100%
6.4°
3
Windvlaag: 6.3 m/s
81%
22:00
14°
1006.2 hPa 30.4 mm
100%
4.7°
3
Windvlaag: 7.3 m/s
96%
23:00
12°
1006.5 hPa 30.4 mm
100%
3.6°
3
Windvlaag: 8.3 m/s
65%
Temp/Neerslag /Baro Onweer/Dauwpunt
    Temp Baro Neerslag Dauwpunt Wind Bewolking  
 04:18     21:38    Daglengte: 17:20 Morgen
02:00
14°
996.1 hPa   14.0°
1
34%
05:00
13°
995.9 hPa   12.0°
1
60%
08:00
15°
995.9 hPa   13.8°
3
41%
11:00
14°
997.0 hPa   11.8°
4
28%
14:00
15°
998.0 hPa   12.7°
4
22%
17:00
16°
998.5 hPa   5.1°
3
71%
20:00
16°
999.2 hPa   5.6°
3
66%
23:00
14°
1000.8 hPa   6.1°
3
69%
 04:21     21:35    Daglengte: 17:14 Maandag 02 Aug
02:00
12°
1001.7 hPa   5.6°
3
21%
05:00
10°
Voelt als: 7.9°
1002.5 hPa   6.0°
3
8%
08:00
12°
1003.1 hPa   5.3°
4
19%
11:00
15°
1003.3 hPa   3.3°
3
27%
14:00
17°
1003.0 hPa   3.8°
3
56%
17:00
17°
1002.7 hPa   11.2°
3
53%
20:00
16°
1003.2 hPa   11.6°
3
47%
23:00
13°
1004.2 hPa   11.3°
2
63%
 04:24     21:32    Daglengte: 17:08 Dinsdag 03 Aug
02:00
11°
1004.9 hPa   9.2°
3
20%
05:00
10°
Voelt als: 7.5°
1005.8 hPa   3.9°
4
50%
08:00
13°
1006.7 hPa   5.2°
4
13%
11:00
16°
1007.3 hPa   3.3°
4
6%
14:00
18°
1007.5 hPa   3.1°
4
57%
17:00
17°
1007.6 hPa   2.2°
4
79%
20:00
16°
1008.4 hPa   3.5°
2
43%
23:00
12°
1006.5 hPa 91.3 mm 3.6°
3
65%
 04:27     21:29    Daglengte: 17:02 Woensdag 04 Aug
02:00
10°
1008.0 hPa 91.3 mm 4.1°
3
7%
05:00
Voelt als: 6.1°
1012.8 hPa 14.4 mm 3.2°
2
0%
08:00
14°
1013.3 hPa 14.4 mm 3.4°
3
0%
11:00
18°
1013.2 hPa 14.4 mm 2.0°
3
0%
14:00
21°
1012.7 hPa 14.4 mm 2.7°
2
1%
17:00
19°
1012.6 hPa 14.4 mm 3.3°
3
1%
20:00
17°
1012.9 hPa 14.4 mm 8.4°
3
1%
23:00
12°
1013.7 hPa 14.4 mm 9.0°
2
0%
 04:29     21:26    Daglengte: 16:57 Donderdag 05 Aug
02:00
11°
1013.7 hPa 14.4 mm 7.5°
2
0%
05:00
10°
1014.0 hPa 14.4 mm 6.8°
2
0%
08:00
17°
1013.9 hPa 14.4 mm 8.3°
1
0%
11:00
21°
1013.8 hPa 14.4 mm 5.7°
3
0%
14:00
22°
1013.2 hPa 14.4 mm 4.6°
3
1%
17:00
18°
1013.7 hPa 14.4 mm 9.8°
2
1%
20:00
17°
1013.8 hPa 14.4 mm 10.6°
3
1%
23:00
15°
1014.2 hPa 14.4 mm 9.3°
1
1%
 04:32     21:23    Daglengte: 16:51 Vrijdag 06 Aug
02:00
14°
1014.4 hPa 14.4 mm 8.8°
1
1%
05:00
12°
1014.8 hPa 14.4 mm 10.1°
1
1%
08:00
18°
1014.4 hPa 14.4 mm 9.1°
1
1%
11:00
20°
1014.1 hPa 14.4 mm 6.0°
3
0%
14:00
20°
1013.7 hPa 14.4 mm 7.4°
4
0%
17:00
20°
1012.5 hPa 14.4 mm 6.0°
4
0%
20:00
17°
1012.3 hPa 14.4 mm 8.6°
3
0%
23:00
14°
1011.9 hPa 14.4 mm 8.1°
3
0%
 04:35     21:20    Daglengte: 16:45 Zaterdag 07 Aug
02:00
15°
1011.2 hPa 14.4 mm 9.0°
3
0%
05:00
14°
1011.3 hPa 14.4 mm 10.3°
3
1%
08:00
18°
1011.1 hPa 14.5 mm 10.3°
5
1%
11:00
21°
1011.0 hPa 14.5 mm 7.8°
6
1%
14:00
21°
1010.8 hPa 14.5 mm 7.0°
6
1%
17:00
20°
1011.0 hPa 14.5 mm 10.7°
6
1%
20:00
17°
1011.4 hPa 14.8 mm 11.9°
4
1%
23:00
16°
1011.7 hPa   13.6°
3
1%
 04:38     21:17    Daglengte: 16:39 Zondag 08 Aug
02:00
15°
1011.4 hPa 30.0 mm 13.3°
3
1%
08:00
15°
1010.2 hPa 30.8 mm 13.5°
3
1%
14:00
16°
1010.1 hPa 36.6 mm 15.3°
2
1%
20:00
16°
1010.0 hPa 39.6 mm 15.5°
1
1%
 04:40     21:14    Daglengte: 16:34 Maandag 09 Aug
02:00
14°
1011.0 hPa 39.9 mm 13.2°
1
0%
08:00
17°
1011.4 hPa 39.9 mm 15.7°
2
1%
14:00
16°
1012.1 hPa 41.4 mm 15.6°
2
1%
20:00
17°
1012.2 hPa 47.8 mm 16.4°
2
1%
 04:43     21:11    Daglengte: 16:28 Dinsdag 10 Aug
02:00
15°
1013.8 hPa 48.2 mm 14.8°
1
1%
08:00
17°
1014.2 hPa 52.4 mm 15.4°
3
1%
14:00
18°
1016.0 hPa 57.8 mm 14.0°
3
1%
20:00
17°
1013.1 hPa 2.0 mm 13.3°
1
75%
 04:46     21:08    Daglengte: 16:22 Woensdag 11 Aug
02:00
14°
1013.6 hPa 0.4 mm 12.4°
1
72%
08:00
16°
1013.6 hPa 1.5 mm 12.7°
1
64%
14:00
20°
1013.1 hPa 1.4 mm 12.4°
1
66%
20:00
17°
1013.3 hPa 1.2 mm 12.9°
0
71%
 04:49     21:04    Daglengte: 16:15 Donderdag 12 Aug
02:00
14°
1014.2 hPa 0.4 mm 11.8°
2
66%
08:00
16°
1014.6 hPa 0.9 mm 12.1°
2
69%
14:00
20°
1014.8 hPa 0.5 mm 11.7°
1
71%
20:00
17°
1015.1 hPa 0.3 mm 12.4°
1
72%
 04:51     21:01    Daglengte: 16:10 Vrijdag 13 Aug
02:00
14°
1015.9 hPa 0.2 mm 11.3°
2
56%
08:00
16°
1016.2 hPa 0.3 mm 11.4°
2
62%
14:00
20°
1015.9 hPa 0.2 mm 11.1°
1
62%
20:00
17°
1015.4 hPa 0.3 mm 12.4°
0
64%
 04:54     20:58    Daglengte: 16:04 Zaterdag 14 Aug
02:00
14°
1015.6 hPa 0.1 mm 11.8°
1
58%
08:00
16°
1014.9 hPa 0.3 mm 11.6°
1
58%
14:00
21°
1013.7 hPa 0.3 mm 11.0°
1
48%
20:00
17°
1012.7 hPa 0.4 mm 12.2°
0
57%
 04:57     20:55    Daglengte: 15:58 Zondag 15 Aug
02:00
14°
1012.7 hPa 0.3 mm 11.5°
1
50%
08:00
16°
1012.0 hPa 0.2 mm 11.4°
1
60%
14:00
19°
1011.4 hPa 0.3 mm 10.8°
1
65%
20:00
17°
1011.0 hPa 0.7 mm 11.6°
0
65%
  CAPE Lifted Index Hail Supercell Tornado SRH 3km CL BTM PRES CL TOP PRES Swiss DWD icon SMHI TS
 04:18     21:38    Daglengte: 17:20 Morgen
00:00 8 J/kg 0.2 K 0 % 0 % 0 % 0 m²/s² 0 0 0.29 3
01:00 15 J/kg -1.4 K 0 % 0 % 0 % 0 m²/s² 0 0 -1.19 2
02:00 3 J/kg -1.3 K 0 % 0 % 0 % 0 m²/s² 0 0 -0.64 3
03:00 7 J/kg -1.8 K 0 % 0 % 0 % 0 m²/s² 0 0 -1.2 2
04:00 52 J/kg -1.2 K 0 % 0 % 0 % 0 m²/s² 0 0 -1.08 3
05:00 41 J/kg -0.8 K 0 % 0 % 0 % 0 m²/s² 0 0 -0.41 3
06:00 0 J/kg -0.2 K 0 % 0 % 0 % 0 m²/s² 0 0 0.01 3
07:00 0 J/kg -0.6 K 0 % 0 % 0 % 0 m²/s² 0 0 -0.6 3
08:00 0 J/kg -0.1 K 0 % 0 % 0 % 0 m²/s² 0 0 -0.1 3
09:00 0 J/kg 0.1 K 0 % 0 % 0 % 0 m²/s² 0 0 0.22 3
10:00 0 J/kg 0.4 K 0 % 0 % 0 % 0 m²/s² 0 0 0.7 3
11:00 47 J/kg 0.5 K 0 % 0 % 0 % 0 m²/s² 0 0 0.68 3
12:00 116 J/kg 0.3 K 0 % 0 % 0 % 0 m²/s² 0 0 0.63 3
13:00 93 J/kg 0.4 K 0 % 0 % 0 % 0 m²/s² 0 0 1.09 3
14:00 58 J/kg 1.3 K 0 % 0 % 0 % 0 m²/s² 0 0 2.26 2
15:00 10 J/kg 1.6 K 0 % 0 % 0 % 0 m²/s² 0 0 3.16 2
16:00 19 J/kg 1.6 K 0 % 0 % 0 % 0 m²/s² 0 0 3.46 3
17:00 18 J/kg 1.8 K 0 % 0 % 0 % 0 m²/s² 0 0 3.48 3
18:00 1 J/kg 2.7 K 0 % 0 % 0 % 0 m²/s² 0 0 4.14 3
19:00 5 J/kg 3.1 K 0 % 0 % 0 % 0 m²/s² 0 0 4.06 3
20:00 5 J/kg 3.4 K 0 % 0 % 0 % 0 m²/s² 0 0 4.18 3
21:00 0 J/kg 4.6 K 0 % 0 % 0 % 0 m²/s² 0 0 5.2 3
22:00 0 J/kg 5.6 K 0 % 0 % 0 % 0 m²/s² 0 0 6.35 3
23:00 0 J/kg 5.8 K 0 % 0 % 0 % 0 m²/s² 0 0 6.43 3
 04:21     21:35    Daglengte: 17:14 Maandag 02 Aug
00:00 0 J/kg 6.4 K 0 % 0 % 0 % 0 m²/s² 0 0 7.09 3
01:00 0 J/kg 7.0 K 0 % 0 % 0 % 0 m²/s² 0 0 7.48 3
02:00 0 J/kg 7.3 K 0 % 0 % 0 % 0 m²/s² 0 0 7.78 3
03:00 0 J/kg 7.2 K 0 % 0 % 0 % 0 m²/s² 0 0 7.8 2
04:00 0 J/kg 7.5 K 0 % 0 % 0 % 0 m²/s² 0 0 8.58 2
05:00 0 J/kg 7.2 K 0 % 0 % 0 % 0 m²/s² 0 0 8.85 3
06:00 0 J/kg 7.3 K 0 % 0 % 0 % 0 m²/s² 0 0 9.73 3
07:00 0 J/kg 7.3 K 0 % 0 % 0 % 0 m²/s² 0 0 10.03 3
08:00 0 J/kg 7.0 K 0 % 0 % 0 % 0 m²/s² 0 0 9.58 3
09:00 0 J/kg 7.1 K 0 % 0 % 0 % 0 m²/s² 0 0 9.26 3
10:00 0 J/kg 7.5 K 0 % 0 % 0 % 0 m²/s² 0 0 9.15 3
11:00 0 J/kg 6.5 K 0 % 0 % 0 % 0 m²/s² 0 0 7.73 3
12:00 3 J/kg 5.6 K 0 % 0 % 0 % 0 m²/s² 0 0 6.23 3
13:00 15 J/kg 4.6 K 0 % 0 % 0 % 0 m²/s² 0 0 4.81 3
14:00 38 J/kg 3.5 K 0 % 0 % 0 % 0 m²/s² 0 0 3.68 3
15:00 65 J/kg 2.6 K 0 % 0 % 0 % 0 m²/s² 0 0 2.84 3
16:00 86 J/kg 2.1 K 0 % 0 % 0 % 0 m²/s² 0 0 2.55 3
17:00 88 J/kg 1.7 K 0 % 0 % 0 % 0 m²/s² 0 0 1.88 2
18:00 76 J/kg 1.8 K 0 % 0 % 0 % 0 m²/s² 0 0 1.98 3
19:00 83 J/kg 1.7 K 0 % 0 % 0 % 0 m²/s² 0 0 2.21 3
20:00 101 J/kg 1.3 K 0 % 0 % 0 % 0 m²/s² 0 0 1.93 2
21:00 111 J/kg 1.3 K 0 % 0 % 0 % 0 m²/s² 0 0 1.9 1
22:00 86 J/kg 1.8 K 0 % 0 % 0 % 0 m²/s² 0 0 2.34 2
23:00 64 J/kg 2.3 K 0 % 0 % 0 % 0 m²/s² 0 0 2.9 2
 04:24     21:32    Daglengte: 17:08 Dinsdag 03 Aug
00:00 50 J/kg 2.7 K 0 % 0 % 0 % 0 m²/s² 0 0 3.51 2
01:00 21 J/kg 3.5 K 0 % 0 % 0 % 0 m²/s² 0 0 4.55 2
02:00 1 J/kg 4.3 K 0 % 0 % 0 % 0 m²/s² 0 0 5.59 2
03:00 0 J/kg 5.5 K 0 % 0 % 0 % 0 m²/s² 0 0 7.75 1
04:00 0 J/kg 5.4 K 0 % 0 % 0 % 0 m²/s² 0 0 9.3 2
05:00 0 J/kg 5.2 K 0 % 0 % 0 % 0 m²/s² 0 0 9.97 2
06:00 0 J/kg 5.3 K 0 % 0 % 0 % 0 m²/s² 0 0 10.46 2
07:00 0 J/kg 5.9 K 0 % 0 % 0 % 0 m²/s² 0 0 11.21 2
08:00 0 J/kg 5.8 K 0 % 0 % 0 % 0 m²/s² 0 0 11.38 0
09:00 0 J/kg 5.7 K 0 % 0 % 0 % 0 m²/s² 0 0 10.98 0
10:00 9 J/kg 5.4 K 0 % 0 % 0 % 0 m²/s² 0 0 10.29 0
11:00 12 J/kg 5.6 K 0 % 0 % 0 % 0 m²/s² 0 0 10.37 2
12:00 15 J/kg 5.4 K 0 % 0 % 0 % 0 m²/s² 0 0 9.78 2
13:00 21 J/kg 5.4 K 0 % 0 % 0 % 0 m²/s² 0 0 9.69 2
14:00 26 J/kg 5.0 K 0 % 0 % 0 % 0 m²/s² 0 0 9.05 1
15:00 24 J/kg 4.7 K 0 % 0 % 0 % 0 m²/s² 0 0 8.75 3
16:00 22 J/kg 4.5 K 0 % 0 % 0 % 0 m²/s² 0 0 8.46 3
17:00 28 J/kg 4.1 K 0 % 0 % 0 % 0 m²/s² 0 0 7.76 3
18:00 33 J/kg 3.7 K 0 % 0 % 0 % 0 m²/s² 0 0 7.27 2
19:00 40 J/kg 3.5 K 0 % 0 % 0 % 0 m²/s² 0 0 6.8 2
20:00 57 J/kg 3.5 K 0 % 0 % 0 % 0 m²/s² 0 0 6.23 2
21:00 29 J/kg 3.9 K 0 % 0 % 0 % 0 m²/s² 0 0 6.48
22:00 0 J/kg 4.3 K 0 % 0 % 0 % 0 m²/s² 0 0 6.88
23:00 0 J/kg 4.7 K 0 % 0 % 0 % 0 m²/s² 0 0 7.82
Temp Baro Wind Neerslag
  EWN Forecast EWN WRFDA DWD ICON FMI HIRLAM MET Norway GFS
 04:18     21:38    Daglengte: 17:20 Morgen
02:00 14.2° 996.1 hPa 1.0 m/s 0.0 mm 14.5° 995.5 hPa 1.6 m/s 26.2 mm 13.4° 995.9 hPa 1.1 m/s -2.0 mm 14.0° 996.7 hPa 1.0 m/s 0.0 mm 14.1° 996.1 hPa 1.1 m/s
05:00 13.2° 995.9 hPa 1.3 m/s 0.0 mm 14.5° 994.9 hPa 0.9 m/s 31.7 mm 12.7° 996.1 hPa 1.1 m/s 0.0 mm 12.4° 996.4 hPa 3.5 m/s 0.0 mm 13.8° 995.8 hPa 1.5 m/s
08:00 14.8° 995.9 hPa 2.9 m/s 0.0 mm 13.1° 995.8 hPa 2.7 m/s 60.8 mm 15.5° 995.9 hPa 3.2 m/s 0.0 mm 12.1° 996.6 hPa 3.0 m/s 0.0 mm 14.5° 996.3 hPa 2.6 m/s
11:00 13.7° 997.0 hPa 3.9 m/s 0.0 mm 15.9° 996.3 hPa 1.6 m/s 86.5 mm 17.1° 996.6 hPa 4.4 m/s 0.0 mm 12.3° 997.6 hPa 3.8 m/s 0.0 mm 13.2° 997.7 hPa 3.6 m/s
14:00 15.1° 998.0 hPa 3.8 m/s 0.0 mm 18.7° 996.5 hPa 1.5 m/s 87.9 mm 17.5° 997.6 hPa 4.7 m/s 0.0 mm 14.5° 998.6 hPa 2.6 m/s 0.0 mm 14.8° 998.1 hPa 2.0 m/s
17:00 16.5° 998.5 hPa 3.3 m/s 0.0 mm 19.6° 996.8 hPa 3.0 m/s 88.1 mm 16.1° 998.4 hPa 3.5 m/s 0.0 mm 18.7° 999.0 hPa 3.4 m/s 0.0 mm 18.7° 997.9 hPa 1.6 m/s
20:00 16.4° 999.2 hPa 2.7 m/s 0.0 mm 18.5° 997.6 hPa 2.5 m/s 88.1 mm 16.2° 999.2 hPa 2.8 m/s 0.0 mm 17.2° 1000.2 hPa 3.0 m/s 0.0 mm 16.0° 998.4 hPa 1.8 m/s
23:00 13.9° 1000.8 hPa 3.0 m/s 0.0 mm 14.1° 998.9 hPa 3.7 m/s 88.1 mm 14.0° 1000.7 hPa 2.9 m/s 0.0 mm 13.8° 1002.9 hPa 2.7 m/s 0.0 mm 13.7° 1000.6 hPa 4.2 m/s
 04:21     21:35    Daglengte: 17:14 Maandag 02 Aug
02:00 11.6° 1001.7 hPa 3.3 m/s 0.0 mm 12.2° 999.3 hPa 4.6 m/s 88.1 mm 11.6° 1001.7 hPa 3.1 m/s 0.0 mm 11.8° 1003.7 hPa 2.7 m/s 0.0 mm 11.1° 1001.1 hPa 4.3 m/s
05:00 9.6° 1002.5 hPa 3.3 m/s 0.0 mm 9.6° 1000.1 hPa 4.4 m/s 88.1 mm 9.6° 1002.4 hPa 3.1 m/s 0.0 mm 9.6° 1004.0 hPa 2.7 m/s 0.0 mm 8.1° 1001.9 hPa 3.2 m/s
08:00 11.9° 1003.1 hPa 3.8 m/s 0.0 mm 13.4° 1000.6 hPa 4.6 m/s 88.1 mm 11.7° 1003.0 hPa 3.8 m/s 0.0 mm 12.7° 1004.0 hPa 3.3 m/s 0.0 mm 12.2° 1002.4 hPa 4.2 m/s
11:00 15.2° 1003.3 hPa 3.5 m/s 0.0 mm 16.6° 1000.4 hPa 4.4 m/s 88.1 mm 15.0° 1003.0 hPa 3.0 m/s 0.0 mm 15.3° 1004.6 hPa 3.6 m/s 0.0 mm 16.6° 1002.4 hPa 3.3 m/s
14:00 17.3° 1003.0 hPa 3.3 m/s 0.0 mm 17.1° 1000.0 hPa 4.2 m/s 88.1 mm 16.1° 1002.9 hPa 3.5 m/s 0.0 mm 18.0° 1004.2 hPa 2.3 m/s 0.0 mm 18.6° 1001.9 hPa 2.4 m/s
17:00 16.8° 1002.7 hPa 3.5 m/s 0.0 mm 16.2° 1000.5 hPa 3.3 m/s 88.5 mm 16.6° 1003.1 hPa 3.6 m/s 0.0 mm 17.3° 1002.3 hPa 2.1 m/s
20:00 15.5° 1003.2 hPa 2.7 m/s 0.0 mm 15.3° 1000.6 hPa 1.6 m/s 90.5 mm 15.1° 1003.5 hPa 2.8 m/s 0.0 mm 15.1° 1002.8 hPa 1.1 m/s
23:00 12.6° 1004.2 hPa 2.4 m/s 0.0 mm 12.2° 1001.1 hPa 2.0 m/s 91.3 mm 12.0° 1004.5 hPa 2.3 m/s 0.0 mm 11.6° 1004.6 hPa 4.2 m/s
 04:24     21:32    Daglengte: 17:08 Dinsdag 03 Aug
02:00 11.3° 1004.9 hPa 3.1 m/s 0.0 mm 11.1° 1001.3 hPa 2.9 m/s 91.3 mm 10.3° 1005.4 hPa 2.9 m/s 0.0 mm 9.6° 1005.4 hPa 4.2 m/s
05:00 9.6° 1005.8 hPa 4.2 m/s 0.0 mm 8.8° 1001.4 hPa 4.4 m/s 91.3 mm 9.2° 1006.2 hPa 3.3 m/s 0.0 mm 8.1° 1006.0 hPa 4.5 m/s
08:00 12.7° 1006.7 hPa 4.3 m/s 0.0 mm 13.5° 1002.0 hPa 4.7 m/s 91.3 mm 11.1° 1007.1 hPa 4.3 m/s 0.0 mm 12.2° 1006.5 hPa 5.3 m/s
11:00 16.3° 1007.3 hPa 4.1 m/s 0.0 mm 17.5° 1002.7 hPa 5.2 m/s 91.3 mm 15.0° 1007.6 hPa 4.1 m/s 0.0 mm 16.7° 1007.4 hPa 3.9 m/s
14:00 18.1° 1007.5 hPa 3.5 m/s 0.0 mm 19.0° 1003.4 hPa 4.7 m/s 91.3 mm 17.0° 1007.8 hPa 3.8 m/s 0.0 mm 19.0° 1007.4 hPa 2.2 m/s
17:00 17.1° 1007.6 hPa 3.8 m/s 0.0 mm 19.3° 1004.0 hPa 4.2 m/s 91.3 mm 16.6° 1008.5 hPa 3.8 m/s 0.0 mm 18.5° 1007.9 hPa 1.4 m/s
20:00 15.8° 1008.4 hPa 1.9 m/s 0.0 mm 18.2° 1005.1 hPa 2.5 m/s 91.3 mm 15.2° 1009.2 hPa 1.8 m/s 0.0 mm 16.1° 1009.2 hPa 2.3 m/s
23:00 12.4° 1006.5 hPa 3.2 m/s 91.3 mm 12.4° 1006.5 hPa 3.2 m/s 91.3 mm 10.2° 1011.1 hPa 2.3 m/s
 04:27     21:29    Daglengte: 17:02 Woensdag 04 Aug
02:00 10.1° 1008.0 hPa 3.4 m/s 91.3 mm 10.1° 1008.0 hPa 3.4 m/s 91.3 mm 8.4° 1012.1 hPa 2.3 m/s
05:00 7.5° 1012.8 hPa 2.2 m/s 14.4 mm 7.5° 1012.8 hPa 2.2 m/s 14.4 mm
08:00 13.7° 1013.3 hPa 2.5 m/s 14.4 mm 13.7° 1013.3 hPa 2.5 m/s 14.4 mm
11:00 17.8° 1013.2 hPa 2.6 m/s 14.4 mm 17.8° 1013.2 hPa 2.6 m/s 14.4 mm
14:00 20.6° 1012.7 hPa 1.5 m/s 14.4 mm 20.6° 1012.7 hPa 1.5 m/s 14.4 mm
17:00 18.8° 1012.6 hPa 3.0 m/s 14.4 mm 18.8° 1012.6 hPa 3.0 m/s 14.4 mm
20:00 16.9° 1012.9 hPa 3.4 m/s 14.4 mm 16.9° 1012.9 hPa 3.4 m/s 14.4 mm
23:00 12.3° 1013.7 hPa 1.8 m/s 14.4 mm 12.3° 1013.7 hPa 1.8 m/s 14.4 mm
 04:29     21:26    Daglengte: 16:57 Donderdag 05 Aug
02:00 11.0° 1013.7 hPa 1.8 m/s 14.4 mm 11.0° 1013.7 hPa 1.8 m/s 14.4 mm
05:00 10.5° 1014.0 hPa 1.8 m/s 14.4 mm 10.5° 1014.0 hPa 1.8 m/s 14.4 mm
08:00 17.1° 1013.9 hPa 1.2 m/s 14.4 mm 17.1° 1013.9 hPa 1.2 m/s 14.4 mm
11:00 20.6° 1013.8 hPa 2.7 m/s 14.4 mm 20.6° 1013.8 hPa 2.7 m/s 14.4 mm
14:00 22.1° 1013.2 hPa 3.4 m/s 14.4 mm 22.1° 1013.2 hPa 3.4 m/s 14.4 mm
17:00 18.1° 1013.7 hPa 2.4 m/s 14.4 mm 18.1° 1013.7 hPa 2.4 m/s 14.4 mm
20:00 17.4° 1013.8 hPa 3.1 m/s 14.4 mm 17.4° 1013.8 hPa 3.1 m/s 14.4 mm
23:00 15.3° 1014.2 hPa 1.4 m/s 14.4 mm 15.3° 1014.2 hPa 1.4 m/s 14.4 mm
 04:32     21:23    Daglengte: 16:51 Vrijdag 06 Aug
02:00 13.7° 1014.4 hPa 1.2 m/s 14.4 mm 13.7° 1014.4 hPa 1.2 m/s 14.4 mm
05:00 12.2° 1014.8 hPa 1.0 m/s 14.4 mm 12.2° 1014.8 hPa 1.0 m/s 14.4 mm
08:00 17.7° 1014.4 hPa 1.3 m/s 14.4 mm 17.7° 1014.4 hPa 1.3 m/s 14.4 mm
11:00 20.1° 1014.1 hPa 3.3 m/s 14.4 mm 20.1° 1014.1 hPa 3.3 m/s 14.4 mm
14:00 20.4° 1013.7 hPa 4.2 m/s 14.4 mm 20.4° 1013.7 hPa 4.2 m/s 14.4 mm
17:00 20.5° 1012.5 hPa 3.7 m/s 14.4 mm 20.5° 1012.5 hPa 3.7 m/s 14.4 mm
20:00 17.4° 1012.3 hPa 3.5 m/s 14.4 mm 17.4° 1012.3 hPa 3.5 m/s 14.4 mm
23:00 14.5° 1011.9 hPa 3.3 m/s 14.4 mm 14.5° 1011.9 hPa 3.3 m/s 14.4 mm
 04:35     21:20    Daglengte: 16:45 Zaterdag 07 Aug
02:00 15.0° 1011.2 hPa 3.3 m/s 14.4 mm 15.0° 1011.2 hPa 3.3 m/s 14.4 mm
05:00 13.6° 1011.3 hPa 3.1 m/s 14.4 mm 13.6° 1011.3 hPa 3.1 m/s 14.4 mm
08:00 17.6° 1011.1 hPa 4.9 m/s 14.5 mm 17.6° 1011.1 hPa 4.9 m/s 14.5 mm
11:00 20.5° 1011.0 hPa 5.6 m/s 14.5 mm 20.5° 1011.0 hPa 5.6 m/s 14.5 mm
14:00 20.8° 1010.8 hPa 6.4 m/s 14.5 mm 20.8° 1010.8 hPa 6.4 m/s 14.5 mm
17:00 19.9° 1011.0 hPa 5.5 m/s 14.5 mm 19.9° 1011.0 hPa 5.5 m/s 14.5 mm
20:00 16.9° 1011.4 hPa 4.5 m/s 14.8 mm 16.9° 1011.4 hPa 4.5 m/s 14.8 mm
23:00 15.7° 1011.7 hPa 2.5 m/s 15.0 mm 15.7° 1011.7 hPa 2.5 m/s 15.0 mm
 04:38     21:17    Daglengte: 16:39 Zondag 08 Aug
02:00 14.6° 1011.4 hPa 2.7 m/s 15.0 mm 14.6° 1011.4 hPa 2.7 m/s 15.0 mm
08:00 14.8° 1010.2 hPa 3.1 m/s 15.6 mm 14.8° 1010.2 hPa 3.1 m/s 15.6 mm
14:00 15.8° 1010.1 hPa 1.8 m/s 19.1 mm 15.8° 1010.1 hPa 1.8 m/s 19.1 mm
20:00 16.5° 1010.0 hPa 1.2 m/s 19.9 mm 16.5° 1010.0 hPa 1.2 m/s 19.9 mm
 04:40     21:14    Daglengte: 16:34 Maandag 09 Aug
02:00 13.7° 1011.0 hPa 0.9 m/s 19.9 mm 13.7° 1011.0 hPa 0.9 m/s 19.9 mm
08:00 16.9° 1011.4 hPa 1.9 m/s 20.0 mm 16.9° 1011.4 hPa 1.9 m/s 20.0 mm
14:00 16.4° 1012.1 hPa 1.7 m/s 21.5 mm 16.4° 1012.1 hPa 1.7 m/s 21.5 mm
20:00 16.7° 1012.2 hPa 1.6 m/s 24.0 mm 16.7° 1012.2 hPa 1.6 m/s 24.0 mm
 04:43     21:11    Daglengte: 16:28 Dinsdag 10 Aug
02:00 15.1° 1013.8 hPa 1.0 m/s 24.2 mm 15.1° 1013.8 hPa 1.0 m/s 24.2 mm
08:00 17.0° 1014.2 hPa 3.1 m/s 27.2 mm 17.0° 1014.2 hPa 3.1 m/s 27.2 mm
14:00 18.4° 1016.0 hPa 3.0 m/s 28.9 mm 18.4° 1016.0 hPa 3.0 m/s 28.9 mm
20:00 17.3° 1013.1 hPa 0.8 m/s 2.0 mm
 04:46     21:08    Daglengte: 16:22 Woensdag 11 Aug
02:00 14.4° 1013.6 hPa 1.0 m/s 0.4 mm
08:00 16.3° 1013.6 hPa 1.1 m/s 1.5 mm
14:00 19.8° 1013.1 hPa 0.8 m/s 1.4 mm
20:00 17.3° 1013.3 hPa 0.2 m/s 1.2 mm
 04:49     21:04    Daglengte: 16:15 Donderdag 12 Aug
02:00 14.2° 1014.2 hPa 1.8 m/s 0.4 mm
08:00 15.9° 1014.6 hPa 2.0 m/s 0.9 mm
14:00 20.4° 1014.8 hPa 0.8 m/s 0.5 mm
20:00 17.4° 1015.1 hPa 0.5 m/s 0.3 mm
 04:51     21:01    Daglengte: 16:10 Vrijdag 13 Aug
02:00 14.0° 1015.9 hPa 1.9 m/s 0.2 mm
08:00 15.8° 1016.2 hPa 2.0 m/s 0.3 mm
14:00 20.0° 1015.9 hPa 1.0 m/s 0.2 mm
20:00 17.3° 1015.4 hPa 0.4 m/s 0.3 mm
 04:54     20:58    Daglengte: 16:04 Zaterdag 14 Aug
02:00 13.9° 1015.6 hPa 1.1 m/s 0.1 mm
08:00 16.2° 1014.9 hPa 1.3 m/s 0.3 mm
14:00 20.6° 1013.7 hPa 0.8 m/s 0.3 mm
20:00 17.2° 1012.7 hPa 0.4 m/s 0.4 mm
 04:57     20:55    Daglengte: 15:58 Zondag 15 Aug
02:00 13.7° 1012.7 hPa 1.3 m/s 0.3 mm
08:00 15.5° 1012.0 hPa 1.4 m/s 0.2 mm
14:00 19.5° 1011.4 hPa 0.6 m/s 0.3 mm
20:00 16.6° 1011.0 hPa 0.1 m/s 0.7 mm
FMI Hirlam - 7.5 km EWN WRFDA - 12 km DWD ICON - 7 km GFS - 25 km Basiskaart






























































Updatetijd (Europe/Amsterdam) Resolutie Lengte Stap
FMI Hirlam 19:00, 01:00, 07:00, 13:00 7.5 km 49h 1h
EWN WRFDA 22:15, 04:15, 10:15, 16:15 12 km 73h 1h
DWD ICON 18:15, 00:15, 06:15, 12:15 7 km 75h 1h
GFS 20:15, 02:15, 08:15, 14:15 25 km 237h 3h
30+ mm
25-30 mm
20-25 mm
15-20 mm
10-15 mm
6-10 mm
4-6 mm
2-4 mm
1-2 mm
0.5-1 mm
0.2-0.5 mm
0.1-0.2 mm
30+ mm
25-30 mm
20-25 mm
15-20 mm
10-15 mm
6-10 mm
4-6 mm
2-4 mm
1-2 mm
0.5-1 mm
0.2-0.5 mm
0.1-0.2 mm
Sneeuwval
Natte sneeuw
Hagel
Vorst
30+ mm
25-30 mm
20-25 mm
15-20 mm
10-15 mm
6-10 mm
4-6 mm
2-4 mm
1-2 mm
0.5-1 mm
0.2-0.5 mm
0.1-0.2 mm
Sneeuwval
Natte sneeuw
Hagel
Vorst
Onweer
50 mm
40 mm
30 mm
26 mm
22 mm
18 mm
14 mm
10 mm
9 mm
8 mm
7 mm
6 mm
5 mm
4.5 mm
4 mm
3.5 mm
3 mm
2.5 mm
2 mm
1.5 mm
1 mm
0.8 mm
0.6 mm
0.4 mm
0.2 mm
0.05 mm
35°
30°
25°
20°
15°
10°
-5°
-10°
-15°
-20°
-25°
-30°
-35°
33> m/s
29 m/s
25 m/s
21 m/s
17 m/s
14 m/s
11 m/s
8 m/s
5 m/s
3 m/s
0 m/s
2600 J/kg
2400 J/kg
2200 J/kg
2000 J/kg
1800 J/kg
1600 J/kg
1400 J/kg
1200 J/kg
1000 J/kg
800 J/kg
600 J/kg
400 J/kg
200 J/kg
70 dBZ
65 dBZ
60 dBZ
55 dBZ
50 dBZ
45 dBZ
40 dBZ
35 dBZ
30 dBZ
25 dBZ
20 dBZ
15 dBZ
10 dBZ
5 dBZ
-1 K
-2 K
-3 K
-4 K
-5 K
-6 K
-7 K
-8 K
-9 K
950 m²/s²
900 m²/s²
850 m²/s²
800 m²/s²
750 m²/s²
700 m²/s²
650 m²/s²
600 m²/s²
550 m²/s²
500 m²/s²
450 m²/s²
400 m²/s²
350 m²/s²
300 m²/s²
250 m²/s²
200 m²/s²
150 m²/s²
100 m²/s²
46 m/s
44 m/s
42 m/s
40 m/s
38 m/s
36 m/s
34 m/s
32 m/s
30 m/s
28 m/s
26 m/s
24 m/s
22 m/s
20 m/s
16 m/s
12 m/s
8 m/s
4 m/s
30 m/s
28 m/s
26 m/s
24 m/s
22 m/s
20 m/s
18 m/s
16 m/s
14 m/s
12 m/s
10 m/s
8 m/s
6 m/s
4 m/s
2 m/s
3.0
2.8
2.6
2.4
2.2
2.0
1.8
1.6
1.4
1.2
1.0
0.8
0.6
0.4
0.2
15
14
13
12
11
10
9
8
7
6
5
4
3
2
1
90%
80%
70%
60%
50%
40%
30%
20%
10%
42
40
38
36
34
32
30
28
26
24
22
20
18
16
14
12
90+ cm
80-90 cm
70-80 cm
60-70 cm
50-60 cm
40-50 cm
30-40 cm
20-30 cm
10-20 cm
1-10 cm
Sneeuwval
Natte sneeuw
Regen
>120 mm
115 mm
110 mm
105 mm
100 mm
95 mm
90 mm
85 mm
80 mm
75 mm
70 mm
65 mm
60 mm
55 mm
50 mm
45 mm
45 mm
40 mm
35 mm
30 mm
25 mm
20 mm
15 mm
10 mm
5 mm
0.1 mm
960 hPa
880 hPa
800 hPa
720 hPa
640 hPa
560 hPa
584 gpdm
568 gpdm
552 gpdm
536 gpdm
520 gpdm
504 gpdm